THEOS

Last updated on Mon Sep 07 2026 00:02:45 GMT+0000 (Coordinated Universal Time)

1 33396U 08049A 26249.62687174 .00000339 00000+0 17896-3 0 9997 2 33396 98.5499 304.2352 0001303 89.9039 270.2288 14.20143292929528
UTC large
Height (km)
Speed (km/s)
/
Latitude / Longitude
Inclination (degrees)
Orbital Period (minutes)
Azimuth
Elevation
Range (km)
Doppler Factor

Next 0 passes for location: London (51.5072 / 0.1276)

No passes found over London.
THEOS